User: anonymous   Login
Location: Melbourne
(37.8170°S, 144.9670°E)
Time: 18:34:00
(UTC+10:00)
Language:

Cosmos 962 Rocket - Orbit

View from above orbital plane
View from above orbital plane
View from above satellite
View from above satellite

Ground track
Ground track

The orbit data is extracted from the following two-line orbital elements,

1 10461U 77107B   16124.90197678  .00000116  00000-0  10269-3 0  9994
2 10461  82.9466 317.2446 0032599 211.6295 259.4686 13.76756885934451
Epoch (UTC): 03 May 2016 21:38:50
Eccentricity: 0.0032599
inclination: 82.9466°
perigee height: 951 km
apogee height: 999 km
right ascension of ascending node: 317.2446°
argument of perigee: 211.6295°
revolutions per day: 13.76756885
mean anomaly at epoch: 259.4686°
orbit number at epoch: 93445

The dashed part of the orbit path shows where the satellite is in the earth's shadow,  

DLR